• Em Portugal
  • Lista de países
  • Para 7 dias
  • Temperatura da água
  • Mapas de satélite
  • Mapa do tempo
  • Widgets de tempo
  • user-avatar
    Iniciar Sessão

    Previsão horária em Krzemianka

    Hoje, 19 Agosto, Domingo

    Tempo Temperatura Precipitação Vento Pressão Humidade
    00:00 +16°C° 0 mm 2 m/s 744 mmHg 93%
    01:00 +15°C° 0 mm 2 m/s 744 mmHg 93%
    02:00 +14°C° 0 mm 2 m/s 744 mmHg 92%
    03:00 +14°C° 0 mm 1 m/s 744 mmHg 91%
    04:00 +14°C° 0 mm 1 m/s 744 mmHg 90%
    05:00 +13°C° 0 mm 1 m/s 744 mmHg 89%
    06:00 +15°C° 0 mm 1 m/s 744 mmHg 84%
    07:00 +16°C° 0 mm 1 m/s 745 mmHg 80%
    08:00 +19°C° 0 mm 1 m/s 745 mmHg 74%
    09:00 +19°C° 0 mm 2 m/s 745 mmHg 68%
    10:00 +21°C° 0 mm 2 m/s 745 mmHg 63%
    11:00 +22°C° 0 mm 3 m/s 745 mmHg 57%
    12:00 +24°C° 0 mm 3 m/s 745 mmHg 56%
    13:00 +25°C° 0 mm 3 m/s 745 mmHg 55%
    14:00 +25°C° 0 mm 3 m/s 744 mmHg 54%
    15:00 +25°C° 0 mm 3 m/s 744 mmHg 56%
    16:00 +25°C° 0 mm 2 m/s 744 mmHg 58%
    17:00 +25°C° 0 mm 2 m/s 744 mmHg 59%
    18:00 +24°C° 0 mm 2 m/s 743 mmHg 65%
    19:00 +22°C° 0 mm 1 m/s 743 mmHg 71%
    20:00 +18°C° 0 mm 0 m/s 743 mmHg 77%
    21:00 +20°C° 0 mm 1 m/s 743 mmHg 79%
    22:00 +19°C° 0 mm 1 m/s 743 mmHg 81%
    23:00 +19°C° 0 mm 1 m/s 743 mmHg 83%

    Amanhã, 20 Agosto, Segunda-feira

    Tempo Temperatura Precipitação Vento Pressão Humidade
    00:00 +18°C° 0 mm 1 m/s 743 mmHg 84%
    01:00 +18°C° 0 mm 1 m/s 742 mmHg 86%
    02:00 +17°C° 0 mm 2 m/s 742 mmHg 87%
    03:00 +17°C° 0 mm 2 m/s 742 mmHg 88%
    04:00 +17°C° 0 mm 2 m/s 741 mmHg 89%
    05:00 +16°C° 0 mm 2 m/s 741 mmHg 89%
    06:00 +18°C° 0 mm 3 m/s 741 mmHg 85%
    07:00 +19°C° 0 mm 3 m/s 741 mmHg 80%
    08:00 +21°C° 0 mm 3 m/s 741 mmHg 75%
    09:00 +22°C° 0 mm 4 m/s 740 mmHg 68%
    10:00 +25°C° 0 mm 4 m/s 740 mmHg 60%
    11:00 +27°C° 0 mm 4 m/s 740 mmHg 52%
    12:00 +27°C° 0 mm 5 m/s 740 mmHg 51%
    13:00 +28°C° 0 mm 5 m/s 739 mmHg 50%
    14:00 +29°C° 0 mm 5 m/s 739 mmHg 49%
    15:00 +28°C° 0,1 mm 5 m/s 739 mmHg 53%
    16:00 +27°C° 0,1 mm 5 m/s 738 mmHg 56%
    17:00 +27°C° 0,1 mm 4 m/s 738 mmHg 60%
    18:00 +25°C° 0,1 mm 4 m/s 738 mmHg 68%
    19:00 +22°C° 0,1 mm 4 m/s 738 mmHg 75%
    20:00 +20°C° 0,1 mm 3 m/s 738 mmHg 83%
    21:00 +19°C° 0 mm 3 m/s 738 mmHg 87%
    22:00 +18°C° 0 mm 3 m/s 738 mmHg 90%
    23:00 +17°C° 0 mm 3 m/s 738 mmHg 94%

    Depois de amanhã, 21 Agosto, Terça-feira

    Tempo Temperatura Precipitação Vento Pressão Humidade
    00:00 +17°C° 0 mm 4 m/s 738 mmHg 93%
    01:00 +15°C° 0 mm 4 m/s 738 mmHg 92%
    02:00 +15°C° 0 mm 4 m/s 738 mmHg 91%
    03:00 +14°C° 0 mm 4 m/s 738 mmHg 90%
    04:00 +14°C° 0 mm 4 m/s 739 mmHg 88%
    05:00 +13°C° 0 mm 4 m/s 739 mmHg 87%
    06:00 +14°C° 0 mm 4 m/s 739 mmHg 85%
    07:00 +15°C° 0 mm 5 m/s 740 mmHg 83%
    08:00 +16°C° 0 mm 5 m/s 740 mmHg 81%
    09:00 +17°C° 0 mm 5 m/s 741 mmHg 75%
    10:00 +19°C° 0 mm 5 m/s 741 mmHg 69%
    11:00 +20°C° 0 mm 5 m/s 742 mmHg 63%
    12:00 +20°C° 0 mm 5 m/s 742 mmHg 60%
    13:00 +21°C° 0 mm 5 m/s 742 mmHg 58%
    14:00 +21°C° 0 mm 5 m/s 743 mmHg 55%
    15:00 +21°C° 0 mm 5 m/s 743 mmHg 56%
    16:00 +20°C° 0 mm 5 m/s 743 mmHg 57%
    17:00 +20°C° 0 mm 5 m/s 743 mmHg 57%
    18:00 +18°C° 0 mm 4 m/s 744 mmHg 64%
    19:00 +15°C° 0 mm 4 m/s 744 mmHg 70%
    20:00 +14°C° 0 mm 3 m/s 744 mmHg 77%
    21:00 +13°C° 0 mm 3 m/s 745 mmHg 80%
    22:00 +13°C° 0 mm 2 m/s 745 mmHg 84%
    23:00 +12°C° 0 mm 2 m/s 745 mmHg 87%

    22 Agosto, Quarta-feira

    Tempo Temperatura Precipitação Vento Pressão Humidade
    00:00 +10°C° 0 mm 2 m/s 746 mmHg 88%
    01:00 +10°C° 0 mm 2 m/s 746 mmHg 89%
    02:00 +10°C° 0 mm 1 m/s 746 mmHg 90%
    03:00 +10°C° 0 mm 1 m/s 746 mmHg 90%
    04:00 +9°C° 0 mm 1 m/s 746 mmHg 90%
    05:00 +9°C° 0 mm 1 m/s 747 mmHg 90%
    06:00 +11°C° 0 mm 1 m/s 747 mmHg 84%
    07:00 +12°C° 0 mm 1 m/s 747 mmHg 78%
    08:00 +14°C° 0 mm 1 m/s 747 mmHg 72%
    09:00 +16°C° 0 mm 1 m/s 747 mmHg 65%
    10:00 +18°C° 0 mm 1 m/s 747 mmHg 58%
    11:00 +20°C° 0 mm 1 m/s 747 mmHg 51%
    12:00 +21°C° 0 mm 1 m/s 747 mmHg 48%
    13:00 +22°C° 0 mm 1 m/s 747 mmHg 44%
    14:00 +23°C° 0 mm 1 m/s 747 mmHg 41%
    15:00 +23°C° 0 mm 1 m/s 746 mmHg 42%
    16:00 +23°C° 0 mm 1 m/s 746 mmHg 42%
    17:00 +22°C° 0 mm 1 m/s 746 mmHg 43%
    18:00 +21°C° 0 mm 1 m/s 746 mmHg 48%
    19:00 +19°C° 0 mm 1 m/s 745 mmHg 53%
    20:00 +16°C° 0 mm 2 m/s 745 mmHg 58%
    21:00 +15°C° 0 mm 2 m/s 745 mmHg 61%
    22:00 +14°C° 0 mm 2 m/s 745 mmHg 63%
    23:00 +13°C° 0 mm 3 m/s 745 mmHg 65%

    23 Agosto, Quinta-feira

    Tempo Temperatura Precipitação Vento Pressão Humidade
    00:00 +13°C° 0 mm 3 m/s 745 mmHg 68%
    01:00 +12°C° 0 mm 3 m/s 745 mmHg 71%
    02:00 +12°C° 0 mm 3 m/s 745 mmHg 73%
    03:00 +12°C° 0 mm 3 m/s 744 mmHg 75%
    04:00 +12°C° 0 mm 3 m/s 744 mmHg 77%
    05:00 +12°C° 0 mm 3 m/s 744 mmHg 78%
    06:00 +13°C° 0 mm 4 m/s 744 mmHg 75%
    07:00 +14°C° 0 mm 4 m/s 744 mmHg 71%
    08:00 +17°C° 0 mm 4 m/s 743 mmHg 68%
    09:00 +18°C° 0 mm 4 m/s 743 mmHg 64%
    10:00 +20°C° 0 mm 4 m/s 743 mmHg 59%
    11:00 +22°C° 0 mm 4 m/s 743 mmHg 55%
    12:00 +23°C° 0 mm 4 m/s 743 mmHg 53%
    13:00 +25°C° 0 mm 4 m/s 743 mmHg 51%
    14:00 +26°C° 0 mm 4 m/s 742 mmHg 49%
    15:00 +26°C° 0 mm 3 m/s 742 mmHg 51%
    16:00 +26°C° 0 mm 3 m/s 742 mmHg 52%
    17:00 +26°C° 0 mm 3 m/s 741 mmHg 54%
    18:00 +24°C° 0 mm 3 m/s 741 mmHg 59%
    19:00 +21°C° 0 mm 3 m/s 741 mmHg 65%
    20:00 +19°C° 0 mm 3 m/s 741 mmHg 70%
    21:00 +19°C° 0 mm 3 m/s 741 mmHg 72%
    22:00 +18°C° 0 mm 3 m/s 740 mmHg 74%
    23:00 +17°C° 0 mm 3 m/s 740 mmHg 77%

    24 Agosto, Sexta-feira

    Tempo Temperatura Precipitação Vento Pressão Humidade
    00:00 +17°C° 0 mm 3 m/s 740 mmHg 80%
    01:00 +17°C° 0 mm 3 m/s 740 mmHg 83%
    02:00 +17°C° 0 mm 3 m/s 740 mmHg 86%
    03:00 +16°C° 0 mm 3 m/s 739 mmHg 88%
    04:00 +16°C° 0 mm 3 m/s 739 mmHg 90%
    05:00 +16°C° 0 mm 3 m/s 739 mmHg 92%
    06:00 +17°C° 0 mm 3 m/s 739 mmHg 89%
    07:00 +18°C° 0 mm 4 m/s 739 mmHg 85%
    08:00 +19°C° 0 mm 4 m/s 739 mmHg 81%
    09:00 +21°C° 0 mm 4 m/s 739 mmHg 75%
    10:00 +23°C° 0 mm 5 m/s 738 mmHg 68%
    11:00 +26°C° 0 mm 5 m/s 738 mmHg 62%
    12:00 +27°C° 0 mm 5 m/s 738 mmHg 58%
    13:00 +28°C° 0 mm 5 m/s 738 mmHg 55%
    14:00 +29°C° 0 mm 6 m/s 737 mmHg 51%
    15:00 +29°C° 0 mm 5 m/s 737 mmHg 53%
    16:00 +28°C° 0 mm 5 m/s 737 mmHg 54%
    17:00 +28°C° 0 mm 5 m/s 736 mmHg 56%
    18:00 +27°C° 0,1 mm 5 m/s 736 mmHg 59%
    19:00 +25°C° 0,1 mm 5 m/s 736 mmHg 61%
    20:00 +23°C° 0,1 mm 5 m/s 736 mmHg 64%
    21:00 +22°C° 0,2 mm 5 m/s 736 mmHg 67%
    22:00 +21°C° 0,2 mm 5 m/s 736 mmHg 69%
    23:00 +20°C° 0,2 mm 5 m/s 736 mmHg 72%
    Mostrar mais